Content
SEND FEEDBACK

Daily
Averages
Monthly
Summary
French Polynesia

HITIAA, FRENCH POLYNESIA


Home > Oceania > French Polynesia
Elevation: 7 feet     Latitude: 17 33S     Longitude: 149 37W

WEATHER
 
SELECT A DAY
Number of Records: 208,679;   Date Range: 6/30/96 - 8/10/14
 
SHARE

PRINT THIS DATA

[ ← Previous Day ]
WEATHER ALMANAC - JUNE 26, 2013
[ Next Day → ]
[ °C ]   °F
We're sorry. There is no daily almanac available for Hitiaa, French Polynesia on June 26, 2013.
WEATHER BY HOUR - JUNE 26, 2013
[ °C ]   °F
Local TimeTemperatureDewpointHumidityBarometerVisibilityWind DirectionWind SpeedGust SpeedPrecipitationEventsConditions
12:30 AM77.0 °F69.8 °F78 %30.06 in6.2 miVariable2.3 mphMostly Cloudy
1:00 AM77.0 °F69.8 °F78 %30.04 in6.2 miNE (50°)4.6 mphMostly Cloudy
1:30 AM77.0 °F68.0 °F74 %30.04 in6.2 miEast (80°)5.8 mphMostly Cloudy
2:00 AM76.0 °F67.0 °F68 %30.05 in16.0 miEast (100°)6.7 mphMostly Cloudy
2:00 AM77.0 °F68.0 °F74 %30.04 in6.2 miEast (100°)3.5 mphMostly Cloudy
2:30 AM77.0 °F68.0 °F74 %30.01 in6.2 miVariable2.3 mphMostly Cloudy
3:00 AM75.2 °F66.2 °F73 %30.01 in6.2 miSouth (180°)5.8 mphMostly Cloudy
3:30 AM75.2 °F66.2 °F73 %30.01 in6.2 miVariable2.3 mphScattered Clouds
4:00 AM75.2 °F68.0 °F78 %30.01 in6.2 miVariable1.2 mphMostly Cloudy
4:30 AM75.2 °F68.0 °F78 %30.01 in6.2 miENE (70°)4.6 mphScattered Clouds
5:00 AM74.0 °F67.0 °F74 %30.02 in34.0 miEast (80°)5.8 mphClear
5:00 AM75.2 °F68.0 °F78 %30.01 in6.2 miEast (80°)5.8 mphPartly Cloudy
5:30 AM75.2 °F66.2 °F73 %30.01 in6.2 miVariable3.5 mphScattered Clouds
6:00 AM73.4 °F68.0 °F83 %30.01 in6.2 miVariable1.2 mphPartly Cloudy
6:30 AM73.4 °F68.0 °F83 %30.01 in6.2 miSouth (170°)4.6 mphPartly Cloudy
7:00 AM75.2 °F68.0 °F78 %30.04 in6.2 miVariable2.3 mphScattered Clouds
8:00 AM79.0 °F69.0 °F64 %30.07 in16.0 miSouth (190°)4.6 mphPartly Cloudy
8:00 AM78.8 °F69.8 °F74 %30.06 in6.2 miSouth (190°)4.6 mphScattered Clouds
8:30 AM80.6 °F69.8 °F70 %30.06 in6.2 miVariable3.5 mphPartly Cloudy
9:00 AM82.4 °F69.8 °F66 %30.06 in6.2 miSW (220°)3.5 mphScattered Clouds
9:30 AM82.4 °F71.6 °F70 %30.06 in6.2 miSW (230°)3.5 mphScattered Clouds
10:00 AM82.4 °F71.6 °F70 %30.06 in6.2 miWSW (250°)3.5 mphScattered Clouds
10:30 AM82.4 °F71.6 °F70 %30.06 in6.2 miSW (230°)3.5 mphMostly Cloudy
11:00 AM83.0 °F71.0 °F60 %30.07 in9.0 miSW (220°)8.9 mphMostly Cloudy
11:00 AM82.4 °F71.6 °F70 %30.06 in6.2 miSW (220°)4.6 mphMostly Cloudy
11:30 AM84.2 °F71.6 °F66 %30.04 in6.2 miWSW (250°)3.5 mphScattered Clouds
12:00 PM86.0 °F73.4 °F66 %30.04 in6.2 miWSW (250°)4.6 mphPartly Cloudy
12:30 PM86.0 °F71.6 °F62 %30.01 in6.2 miWest (260°)4.6 mphPartly Cloudy
1:00 PM84.2 °F71.6 °F66 %30.01 in6.2 miSW (230°)8.1 mphPartly Cloudy
1:30 PM84.2 °F71.6 °F66 %29.98 in6.2 miSW (230°)6.9 mphPartly Cloudy
2:00 PM83.0 °F71.0 °F58 %29.99 in16.0 miSW (220°)17.9 mphScattered Clouds
2:00 PM84.2 °F69.8 °F62 %29.98 in6.2 miSW (220°)9.2 mphPartly Cloudy
2:30 PM84.2 °F71.6 °F66 %29.98 in6.2 miSSW (210°)10.4 mphPartly Cloudy
3:00 PM82.4 °F71.6 °F70 %29.98 in6.2 miSW (230°)6.9 mphPartly Cloudy
3:30 PM84.2 °F71.6 °F66 %29.98 in6.2 miSW (230°)8.1 mphScattered Clouds
4:00 PM82.4 °F69.8 °F66 %29.98 in6.2 miSW (230°)8.1 mphScattered Clouds
5:00 PM83.0 °F72.0 °F61 %29.98 in16.0 miWest (260°)4.5 mphScattered Clouds
5:00 PM82.4 °F71.6 °F70 %29.98 in6.2 miVariable3.5 mphScattered Clouds
5:30 PM82.4 °F71.6 °F70 %29.98 in6.2 miVariable3.5 mphScattered Clouds
6:00 PM80.6 °F69.8 °F70 %29.95 in6.2 miVariable2.3 mphScattered Clouds
6:30 PM80.6 °F69.8 °F70 %29.98 in6.2 miENE (60°)8.1 mphMostly Cloudy
7:00 PM80.6 °F71.6 °F74 %29.98 in6.2 miVariable3.5 mphMostly Cloudy
7:30 PM80.6 °F71.6 °F74 %30.01 in6.2 miENE (60°)4.6 mphMostly Cloudy
8:00 PM80.0 °F71.0 °F68 %30.01 in16.0 miNNE (20°)2.3 mphMostly Cloudy
8:00 PM80.6 °F71.6 °F74 %30.01 in6.2 miVariable2.3 mphMostly Cloudy
8:30 PM77.0 °F71.6 °F83 %30.01 in6.2 miEast (90°)6.9 mphMostly Cloudy
9:00 PM78.8 °F71.6 °F78 %30.01 in6.2 miENE (60°)4.6 mphMostly Cloudy
9:30 PM78.8 °F71.6 °F78 %30.01 in6.2 miENE (70°)4.6 mphMostly Cloudy
10:00 PM78.8 °F71.6 °F78 %30.01 in6.2 miEast (80°)5.8 mphMostly Cloudy
10:30 PM78.8 °F71.6 °F78 %30.01 in6.2 miNE (50°)3.5 mphMostly Cloudy
11:00 PM78.0 °F71.0 °F73 %30.01 in12.0 miEast (90°)4.5 mphPartly Cloudy
11:00 PM78.8 °F71.6 °F78 %30.01 in6.2 miVariable2.3 mphMostly Cloudy
11:30 PM77.0 °F69.8 °F78 %30.01 in6.2 miESE (120°)4.6 mphMostly Cloudy
Hourly data recorded from NTAA, located miles away from Hitiaa, French Polynesia







STORIES FROM OUR PARTNERS